Location: Street
(51.1247°N, 2.7429°W)
Time: 12:03:31
(UTC+01:00)

Tiros 1 - Visible Passes

Search period start: 18 May 2021 00:00
Search period end: 28 May 2021 00:00
Orbit: 630 x 664 km, 48.4° (Epoch: 18 May)

Date Brightness Start Highest point End Pass type
(mag) Time Alt. Az. Time Alt. Az. Time Alt. Az.
18 May 7.6 00:49:59 40° SSE 00:49:59 40° SSE 00:54:20 10° E visible
18 May 7.1 02:27:33 13° WSW 02:31:44 64° S 02:36:28 10° E visible
18 May 7.4 04:09:04 10° W 04:13:40 48° SSW 04:18:14 10° SE visible
18 May 8.6 23:35:37 21° ESE 23:35:37 21° ESE 23:37:55 10° E visible
19 May 7.2 01:13:07 26° SW 01:15:38 55° SSE 01:20:19 10° E visible
19 May 7.2 02:52:52 10° W 02:57:37 61° S 03:02:19 10° ESE visible
19 May 8.8 22:15:56 10° SSE 22:18:19 14° SE 22:20:43 10° ESE visible
19 May 7.6 23:55:10 10° SW 23:59:37 39° SSE 00:04:05 10° E visible
20 May 7.1 01:36:43 10° WSW 01:41:29 63° S 01:46:14 10° E visible
20 May 7.3 03:18:48 10° W 03:23:27 50° SSW 03:28:03 10° ESE visible
20 May 8.2 22:39:56 10° SSW 22:43:47 24° SSE 22:47:38 10° E visible
21 May 7.2 00:20:42 10° WSW 00:25:24 53° SSE 00:30:05 10° E visible
21 May 7.1 02:02:37 10° W 02:07:22 62° S 02:12:06 10° ESE visible
21 May 7.8 03:44:50 10° W 03:49:11 35° SSW 03:53:30 10° SE visible
21 May 7.7 23:04:58 10° SW 23:09:24 37° SSE 23:13:51 10° E visible
22 May 7.1 00:46:30 10° WSW 00:51:15 63° S 00:56:00 10° E visible
22 May 7.3 02:28:33 10° W 02:33:13 51° SSW 02:37:51 10° ESE visible
22 May 8.3 04:11:06 10° W 04:14:47 22° SW 04:18:26 10° SSE visible
22 May 8.3 21:49:51 10° SSW 21:53:35 23° SE 21:57:20 10° E visible
22 May 7.3 23:30:30 10° WSW 23:35:09 52° SSE 23:39:51 10° E visible
23 May 7.1 01:12:22 10° W 01:17:08 63° S 01:21:53 10° ESE visible
23 May 7.7 02:54:34 10° W 02:58:58 37° SSW 03:03:21 10° SE visible
23 May 7.8 22:14:48 10° SW 22:19:11 36° SSE 22:23:35 10° E visible
23 May 7.1 23:56:15 10° WSW 00:01:01 62° S 00:05:46 10° E visible
24 May 7.2 01:38:18 10° W 01:43:00 53° SSW 01:47:39 10° ESE visible
24 May 8.2 03:20:48 10° W 03:24:35 23° SW 03:28:21 10° SSE visible
24 May 7.4 22:40:17 10° WSW 22:44:56 50° SSE 22:49:36 10° E visible
25 May 7.1 00:22:08 10° W 00:26:54 63° S 00:31:39 10° ESE visible
25 May 7.6 02:04:18 10° W 02:08:46 38° SSW 02:13:11 10° SE visible
25 May 8.8 03:47:47 10° WSW 03:50:02 13° SW 03:52:17 10° SSW visible
25 May 7.2 23:06:02 10° WSW 23:10:47 62° S 23:15:33 10° E visible
26 May 7.2 00:48:03 10° W 00:52:46 54° SSW 00:56:35 15° ESE visible
26 May 8.2 02:30:29 10° W 02:34:06 25° SW 02:34:06 25° SW visible
26 May 7.5 21:50:05 10° WSW 21:54:42 49° SSE 21:59:21 10° E visible
26 May 7.2 23:31:53 10° W 23:36:40 64° S 23:41:26 10° ESE visible
27 May 7.6 01:14:02 10° W 01:18:32 40° SSW 01:19:48 33° SSE visible
27 May 9.3 02:57:19 10° WSW 02:57:22 10° WSW 02:57:22 10° WSW visible
27 May 7.3 22:15:48 10° WSW 22:20:32 61° S 22:25:18 10° E visible
